Weather History for KBRL - July, 2013

Change the Weather History Date:

Tuesday, July 16, 2013

  Actual Average Record
Temperature  
Mean Temperature 82 °F 77 °F  
Max Temperature 91 °F 87 °F 100 °F (1936)
Min Temperature 73 °F 67 °F 51 °F (2014)
Degree Days  
Heating Degree Days 0 0  
Month to date heating degree days 0 0  
Since 1 June heating degree days 15 13  
Since 1 July heating degree days 0 0  
Cooling Degree Days 17 12  
Month to date cooling degree days 171 192  
Year to date cooling degree days 478 555  
Since 1 June cooling degree days 379 452  
Growing Degree Days 32 (Base 50)    
Moisture  
Dew Point 73 °F    
Average Humidity 73    
Maximum Humidity 94    
Minimum Humidity 52    
Precipitation  
Precipitation 0.00 in 0.14 in 1.77 in (1951)
Month to date precipitation 0.15 2.26  
Year to date precipitation 25.62 20.99  
Sea Level Pressure  
Sea Level Pressure 30.25 in    
Wind  
Wind Speed 5 mph (South)    
Max Wind Speed 12 mph    
Max Gust Speed 15 mph    
Visibility 10 miles    
Events      
T = Trace of Precipitation, MM = Missing Value Source: NWS Daily Summary

Daily Weather History Graph

Daily Weather History Graph

Search for Another Location

Airport or City:

Trip Planner

Search our weather history database for the weather conditions in past years. The results will help you decide how hot, cold, wet, or windy it might be!

Date:

Astronomy

Jul. 16, 2013 Rise Set
Actual Time 5:46 AM CDT 8:33 PM CDT
Civil Twilight 5:14 AM CDT 9:06 PM CDT
Nautical Twilight 4:34 AM CDT 9:46 PM CDT
Astronomical Twilight 3:47 AM CDT 10:32 PM CDT
Moon 2:14 PM CDT (7/16) 12:17 AM CDT (7/16)
Length of Visible Light 15h 51m
Length of Day
14h 46m
First Quarter, 56% of the Moon is Illuminated
Jul 16
First Quarter
Jul 22
Full
Jul 29
Last Quarter
Aug 6
New
Aug 14
First Quarter

Hourly Weather History & Observations

Time (CDT) Temp. Heat Index Dew Point Humidity Pressure Visibility Wind Dir Wind Speed Gust Speed Precip Events Conditions
12:53 AM 78.1 °F - 73.0 °F 84% 30.22 in 10.0 mi SSE 3.5 mph - N/A   Clear
1:53 AM 75.9 °F - 73.0 °F 91% 30.22 in 10.0 mi South 4.6 mph - N/A   Clear
2:53 AM 75.9 °F - 73.0 °F 91% 30.22 in 10.0 mi South 5.8 mph - N/A   Clear
3:53 AM 75.0 °F - 73.0 °F 94% 30.22 in 8.0 mi SSW 3.5 mph - N/A   Clear
4:53 AM 75.0 °F - 73.0 °F 94% 30.23 in 8.0 mi South 3.5 mph - N/A   Clear
5:53 AM 73.0 °F - 72.0 °F 96% 30.25 in 9.0 mi SSE 4.6 mph - N/A   Clear
6:53 AM 75.9 °F - 73.9 °F 94% 30.26 in 8.0 mi Calm Calm - N/A   Clear
7:53 AM 79.0 °F - 73.9 °F 84% 30.27 in 10.0 mi South 5.8 mph - N/A   Clear
8:53 AM 81.0 °F 86.2 °F 73.9 °F 79% 30.28 in 10.0 mi South 6.9 mph - N/A   Partly Cloudy
9:53 AM 84.0 °F 91.2 °F 73.9 °F 72% 30.28 in 9.0 mi SSW 8.1 mph - N/A   Clear
10:53 AM 84.0 °F 90.2 °F 73.0 °F 69% 30.28 in 10.0 mi SW 6.9 mph - N/A   Clear
11:53 AM 88.0 °F 94.7 °F 72.0 °F 59% 30.28 in 10.0 mi South 8.1 mph - N/A   Clear
12:53 PM 88.0 °F 93.8 °F 71.1 °F 57% 30.28 in 10.0 mi Calm Calm - N/A   Partly Cloudy
1:53 PM 89.1 °F 96.0 °F 72.0 °F 57% 30.26 in 10.0 mi South 4.6 mph - N/A   Partly Cloudy
2:53 PM 91.0 °F 99.3 °F 73.0 °F 55% 30.25 in 10.0 mi South 9.2 mph - N/A   Partly Cloudy
3:53 PM 91.0 °F 98.2 °F 72.0 °F 53% 30.24 in 10.0 mi South 9.2 mph - N/A   Partly Cloudy
4:53 PM 90.0 °F 96.9 °F 72.0 °F 55% 30.24 in 10.0 mi South 6.9 mph - N/A   Partly Cloudy
5:53 PM 90.0 °F 96.9 °F 72.0 °F 55% 30.22 in 10.0 mi South 5.8 mph - N/A   Clear
6:53 PM 89.1 °F 96.0 °F 72.0 °F 57% 30.23 in 10.0 mi South 5.8 mph - N/A   Clear
7:53 PM 86.0 °F 93.0 °F 73.0 °F 65% 30.24 in 10.0 mi South 5.8 mph - N/A   Clear
8:53 PM 84.0 °F 90.2 °F 73.0 °F 69% 30.24 in 10.0 mi SSE 4.6 mph - N/A   Clear
9:53 PM 82.0 °F 87.4 °F 73.0 °F 74% 30.26 in 10.0 mi SSE 5.8 mph - N/A   Clear
10:53 PM 79.0 °F - 72.0 °F 79% 30.27 in 10.0 mi Calm Calm - N/A   Clear
11:53 PM 78.1 °F - 72.0 °F 81% 30.27 in 10.0 mi South 4.6 mph - N/A   Clear